Weather History for Owosso, MI

Change the Weather History Date:

Saturday, September 8, 2012

  Actual Average (KFNT) Record (KFNT)
Temperature  
Mean Temperature 62 °F 64 °F  
Max Temperature 71 °F 75 °F 97 °F (1933)
Min Temperature 54 °F 53 °F 37 °F (1986)
Degree Days  
Heating Degree Days 2 3  
Month to date heating degree days 20  
Since 1 July heating degree days 64  
Cooling Degree Days 0 2  
Month to date cooling degree days 21  
Year to date cooling degree days 498  
Growing Degree Days 12 (Base 50)    
Moisture  
Dew Point 53 °F    
Average Humidity 76    
Maximum Humidity 100    
Minimum Humidity 46    
Precipitation  
Precipitation 0.00 in 0.13 in 2.34 in (1989)
Month to date precipitation 0.96  
Year to date precipitation 21.52  
Snow  
Snow 0.00 in 0.00 in 0.00 in ()
Month to date snowfall 0.0  
Since 1 July snowfall 0.0  
Since 1 September snowfall 0.0  
Snow Depth -    
Sea Level Pressure  
Sea Level Pressure 29.76 in    
Wind  
Wind Speed 8 mph (WNW)    
Max Wind Speed 16 mph    
Max Gust Speed 25 mph    
Visibility 10 miles    
Events Rain    
T = Trace of Precipitation, MM = Missing Value Source: NWS Daily Summary

Daily Weather History Graph

Daily Weather History Graph

Search for Another Location

Airport:

Trip Planner

Search our weather history database for the weather conditions in past years. The results will help you decide how hot, cold, wet, or windy it might be!

Date:

Astronomy

Sep. 08, 2012 Rise Set
Actual Time 7:09 AM EDT 7:58 PM EDT
Civil Twilight 6:40 AM EDT 8:26 PM EDT
Nautical Twilight 6:06 AM EDT 9:00 PM EDT
Astronomical Twilight 5:30 AM EDT 9:36 PM EDT
Moon No Moon Rise 3:01 PM EDT (9/8)
Length of Visible Light 13h 46m
Length of Day
12h 49m
Waning Gibbous, 49% of the Moon is Illuminated
Sep 8
Waning Gibbous
Sep 15
New
Sep 22
First Quarter
Sep 29
Full
Oct 8
Last Quarter

Hourly Weather History & Observations

Time (EDT) Temp. Dew Point Humidity Pressure Visibility Wind Dir Wind Speed Gust Speed Precip Events Conditions
12:35 AM 59.2 °F 59.0 °F 99% 29.76 in 7.0 mi NW 6.9 mph - N/A Rain Rain
12:55 AM 58.6 °F 58.3 °F 99% 29.75 in 10.0 mi NW 5.8 mph - N/A Rain Light Rain
1:15 AM 58.3 °F 58.1 °F 99% 29.75 in 10.0 mi WNW 4.6 mph - N/A Rain Light Rain
1:35 AM 58.1 °F 58.1 °F 100% 29.74 in 10.0 mi NW 5.8 mph - N/A   Overcast
2:15 AM 58.1 °F 57.7 °F 99% 29.72 in 10.0 mi NW 9.2 mph - N/A Rain Light Rain
2:35 AM 57.6 °F 57.2 °F 99% 29.71 in 10.0 mi NW 8.1 mph - N/A Rain Light Rain
2:55 AM 57.2 °F 57.2 °F 100% 29.70 in 10.0 mi NW 4.6 mph - N/A Rain Light Rain
3:15 AM 57.2 °F 57.2 °F 100% 29.71 in 10.0 mi WNW 4.6 mph - N/A Rain Rain
3:35 AM 57.2 °F 56.8 °F 99% 29.71 in 10.0 mi NW 4.6 mph - N/A   Drizzle
3:55 AM 57.2 °F 56.8 °F 99% 29.73 in 10.0 mi West 4.6 mph - N/A   Overcast
4:15 AM 57.2 °F 56.7 °F 98% 29.71 in 10.0 mi West 3.5 mph - N/A   Overcast
4:35 AM 57.2 °F 57.2 °F 100% 29.71 in 10.0 mi WNW 6.9 mph - N/A   Mostly Cloudy
4:55 AM 57.2 °F 57.2 °F 100% 29.70 in 10.0 mi WNW 5.8 mph - N/A   Mostly Cloudy
5:15 AM 57.2 °F 57.2 °F 100% 29.71 in 10.0 mi WNW 11.5 mph - N/A   Mostly Cloudy
5:35 AM 57.2 °F 56.8 °F 99% 29.70 in 10.0 mi WNW 6.9 mph - N/A   Mostly Cloudy
5:55 AM 57.2 °F 56.7 °F 98% 29.69 in 10.0 mi NW 8.1 mph - N/A   Overcast
6:15 AM 56.8 °F 56.5 °F 99% 29.69 in 10.0 mi NW 8.1 mph - N/A   Overcast
6:35 AM 56.3 °F 55.8 °F 98% 29.69 in 10.0 mi NW 8.1 mph 16.1 mph N/A   Overcast
6:55 AM 55.6 °F 55.4 °F 99% 29.69 in 10.0 mi WNW 6.9 mph - N/A   Mostly Cloudy
7:15 AM 55.0 °F 54.9 °F 99% 29.71 in 10.0 mi WNW 6.9 mph - N/A   Scattered Clouds
7:35 AM 54.7 °F 54.7 °F 100% 29.73 in 10.0 mi West 6.9 mph - N/A   Clear
7:55 AM 55.0 °F 55.0 °F 100% 29.74 in 10.0 mi West 6.9 mph - N/A   Scattered Clouds
8:15 AM 56.5 °F 55.8 °F 97% 29.74 in 10.0 mi WNW 5.8 mph - N/A   Mostly Cloudy
8:35 AM 57.2 °F 55.8 °F 95% 29.75 in 10.0 mi WNW 8.1 mph - N/A   Mostly Cloudy
8:55 AM 57.6 °F 56.3 °F 96% 29.75 in 10.0 mi West 9.2 mph - N/A   Scattered Clouds
9:15 AM 59.0 °F 56.1 °F 90% 29.75 in 10.0 mi WNW 9.2 mph - N/A   Clear
9:36 AM 60.6 °F 56.5 °F 86% 29.76 in 10.0 mi West 10.4 mph - N/A   Clear
9:55 AM 62.1 °F 56.5 °F 82% 29.76 in 10.0 mi West 10.4 mph 20.7 mph N/A   Clear
10:15 AM 63.3 °F 56.7 °F 79% 29.76 in 10.0 mi WNW 11.5 mph - N/A   Clear
10:35 AM 64.2 °F 56.1 °F 75% 29.76 in 10.0 mi WNW 10.4 mph - N/A   Clear
10:55 AM 64.6 °F 55.4 °F 72% 29.76 in 10.0 mi WNW 11.5 mph - N/A   Scattered Clouds
11:15 AM 66.0 °F 55.6 °F 69% 29.76 in 10.0 mi West 15.0 mph 20.7 mph N/A   Scattered Clouds
11:35 AM 66.9 °F 54.9 °F 65% 29.75 in 10.0 mi West 16.1 mph 21.9 mph N/A   Scattered Clouds
11:55 AM 67.6 °F 52.5 °F 58% 29.75 in 10.0 mi WNW 12.7 mph 20.7 mph N/A   Scattered Clouds
12:15 PM 67.6 °F 52.9 °F 59% 29.75 in 10.0 mi WNW 13.8 mph 25.3 mph N/A   Scattered Clouds
12:35 PM 67.6 °F 52.2 °F 58% 29.75 in 10.0 mi NW 13.8 mph 19.6 mph N/A   Mostly Cloudy
12:55 PM 68.5 °F 52.0 °F 55% 29.75 in 10.0 mi WNW 10.4 mph 25.3 mph N/A   Mostly Cloudy
1:15 PM 70.0 °F 50.7 °F 50% 29.74 in 10.0 mi WNW 13.8 mph 24.2 mph N/A   Mostly Cloudy
1:35 PM 68.7 °F 51.4 °F 54% 29.75 in 10.0 mi WNW 10.4 mph 16.1 mph N/A   Mostly Cloudy
1:55 PM 70.7 °F 51.1 °F 50% 29.75 in 10.0 mi West 15.0 mph 24.2 mph N/A   Mostly Cloudy
2:15 PM 68.2 °F 50.9 °F 54% 29.76 in 10.0 mi WNW 12.7 mph 21.9 mph N/A   Overcast
2:35 PM 68.0 °F 50.7 °F 54% 29.76 in 10.0 mi WNW 16.1 mph 25.3 mph N/A   Overcast
2:55 PM 68.0 °F 52.9 °F 58% 29.76 in 10.0 mi West 13.8 mph 19.6 mph N/A   Overcast
3:15 PM 70.3 °F 49.5 °F 47% 29.75 in 10.0 mi West 15.0 mph 23.0 mph N/A   Scattered Clouds
3:35 PM 71.4 °F 49.8 °F 46% 29.75 in 10.0 mi West 13.8 mph 19.6 mph N/A   Scattered Clouds
3:55 PM 70.3 °F 50.2 °F 49% 29.75 in 10.0 mi West 10.4 mph 17.3 mph N/A   Mostly Cloudy
4:15 PM 67.5 °F 50.9 °F 55% 29.76 in 10.0 mi WNW 8.1 mph - N/A   Overcast
4:35 PM 67.6 °F 52.0 °F 57% 29.76 in 10.0 mi West 9.2 mph - N/A   Overcast
4:55 PM 67.8 °F 50.4 °F 54% 29.76 in 10.0 mi West 12.7 mph - N/A   Overcast
5:15 PM 67.8 °F 50.0 °F 53% 29.76 in 10.0 mi West 12.7 mph 18.4 mph N/A   Overcast
5:35 PM 67.5 °F 50.2 °F 54% 29.76 in 10.0 mi West 12.7 mph - N/A   Overcast
5:55 PM 67.5 °F 51.1 °F 56% 29.77 in 10.0 mi WNW 11.5 mph - N/A   Overcast
6:15 PM 67.1 °F 49.6 °F 53% 29.78 in 10.0 mi WNW 8.1 mph - N/A   Overcast
6:35 PM 66.4 °F 49.1 °F 54% 29.78 in 10.0 mi WNW 10.4 mph - N/A   Overcast
6:55 PM 65.7 °F 49.3 °F 55% 29.79 in 10.0 mi WNW 6.9 mph - N/A   Overcast
7:15 PM 65.1 °F 48.6 °F 55% 29.79 in 10.0 mi WNW 12.7 mph 21.9 mph N/A   Overcast
7:35 PM 64.4 °F 47.7 °F 55% 29.80 in 10.0 mi WNW 10.4 mph 16.1 mph N/A   Overcast
7:55 PM 63.7 °F 48.7 °F 58% 29.81 in 10.0 mi WNW 9.2 mph - N/A   Overcast
8:15 PM 62.8 °F 50.2 °F 63% 29.81 in 10.0 mi West 8.1 mph - N/A   Overcast
8:35 PM 62.4 °F 49.6 °F 63% 29.81 in 10.0 mi West 6.9 mph - N/A   Overcast
8:55 PM 62.1 °F 49.5 °F 63% 29.82 in 10.0 mi WNW 6.9 mph - N/A   Overcast
9:15 PM 61.5 °F 49.8 °F 65% 29.83 in 10.0 mi West 6.9 mph - N/A   Overcast
9:35 PM 60.6 °F 50.2 °F 68% 29.83 in 10.0 mi West 5.8 mph - N/A   Overcast
10:15 PM 60.4 °F 51.1 °F 71% 29.84 in 10.0 mi West 6.9 mph - N/A   Overcast
10:35 PM 59.9 °F 51.8 °F 75% 29.84 in 10.0 mi West 5.8 mph - N/A   Mostly Cloudy
10:55 PM 58.6 °F 51.4 °F 77% 29.84 in 10.0 mi WSW 4.6 mph - N/A   Scattered Clouds
11:15 PM 58.1 °F 51.8 °F 80% 29.84 in 10.0 mi Calm Calm - N/A   Clear
11:35 PM 56.1 °F 52.2 °F 87% 29.85 in 10.0 mi Calm Calm - N/A   Clear
11:55 PM 54.1 °F 52.0 °F 92% 29.85 in 10.0 mi Calm Calm - N/A   Scattered Clouds